Terre Haute, IN

9:26 PM EDT on September 29, 2016 (GMT -0400)
Terre Haute International-Hulman

Weather History for KHUF - October, 2012

Change the Weather History Date:

Monday, October 29, 2012

  Actual Average Record
Temperature  
Mean Temperature 46 °F 50 °F  
Max Temperature 57 °F 61 °F 78 °F (1999)
Min Temperature 35 °F 39 °F 22 °F (1976)
Degree Days  
Heating Degree Days 19 15  
Month to date heating degree days 307 318  
Since 1 July heating degree days 396 396  
Cooling Degree Days 0 0  
Month to date cooling degree days 12 12  
Year to date cooling degree days 1592 990  
Moisture  
Dew Point 30 °F    
Average Humidity 56    
Maximum Humidity 76    
Minimum Humidity 35    
Precipitation  
Precipitation 0.00 in 0.10 in 0.70 in (2002)
Month to date precipitation 2.89 3.37  
Year to date precipitation 24.62 38.07  
Sea Level Pressure  
Sea Level Pressure 30.14 in    
Wind  
Wind Speed 13 mph (NNW)    
Max Wind Speed 25 mph    
Max Gust Speed 36 mph    
Visibility 10 miles    
Events      
T = Trace of Precipitation, MM = Missing Value Source: NWS Daily Summary

Daily Weather History Graph

Daily Weather History Graph

Search for Another Location

Airport or City:

Trip Planner

Search our weather history database for the weather conditions in past years. The results will help you decide how hot, cold, wet, or windy it might be!

Date:

Astronomy

Oct. 29, 2012 Rise Set
Actual Time 8:14 AM EDT 6:50 PM EDT
Civil Twilight 7:46 AM EDT 7:18 PM EDT
Nautical Twilight 7:15 AM EDT 7:49 PM EDT
Astronomical Twilight 6:43 AM EDT 8:21 PM EDT
Moon 6:42 PM EDT (10/29) 8:04 AM EDT (10/29)
Length of Visible Light 11h 31m
Length of Day
10h 36m
Full, 100% of the Moon is Illuminated
Oct 29
Full
Oct 29
Full
Nov 6
Last Quarter
Nov 13
New
Nov 20
First Quarter

Hourly Weather History & Observations

Time (EDT) Temp. Windchill Dew Point Humidity Pressure Visibility Wind Dir Wind Speed Gust Speed Precip Events Conditions
12:53 AM 39.0 °F 34.8 °F 30.0 °F 70% 30.19 in 10.0 mi NNW 5.8 mph - N/A   Clear
1:53 AM 39.9 °F 33.9 °F 30.9 °F 70% 30.19 in 10.0 mi NNW 9.2 mph - N/A   Clear
2:53 AM 39.0 °F 34.8 °F 30.9 °F 73% 30.19 in 10.0 mi NNW 5.8 mph - N/A   Clear
3:53 AM 37.9 °F 32.7 °F 30.9 °F 76% 30.19 in 10.0 mi NNW 6.9 mph - N/A   Clear
4:53 AM 39.0 °F 32.3 °F 30.9 °F 73% 30.19 in 10.0 mi NNW 10.4 mph - N/A   Clear
5:53 AM 37.9 °F 32.7 °F 30.9 °F 76% 30.19 in 10.0 mi NNW 6.9 mph - N/A   Clear
6:53 AM 36.0 °F 29.6 °F 28.9 °F 76% 30.19 in 10.0 mi NNW 8.1 mph - N/A   Clear
7:53 AM 36.0 °F 29.6 °F 28.0 °F 73% 30.19 in 10.0 mi NNW 8.1 mph - N/A   Clear
8:53 AM 36.0 °F 29.0 °F 28.0 °F 73% 30.21 in 10.0 mi NNW 9.2 mph - N/A   Clear
9:53 AM 39.9 °F 33.4 °F 28.9 °F 65% 30.22 in 10.0 mi North 10.4 mph - N/A   Clear
10:53 AM 45.0 °F 39.7 °F 30.9 °F 58% 30.21 in 10.0 mi NNW 10.4 mph 21.9 mph N/A   Clear
11:53 AM 50.0 °F - 34.0 °F 54% 30.21 in 10.0 mi North 15.0 mph 21.9 mph N/A   Clear
12:53 PM 53.1 °F - 30.9 °F 43% 30.18 in 10.0 mi North 18.4 mph 35.7 mph N/A   Clear
1:53 PM 55.0 °F - 32.0 °F 42% 30.14 in 10.0 mi North 11.5 mph 26.5 mph N/A   Partly Cloudy
2:53 PM 55.9 °F - 30.9 °F 39% 30.12 in 10.0 mi North 18.4 mph 27.6 mph N/A   Scattered Clouds
3:53 PM 55.9 °F - 28.0 °F 34% 30.09 in 10.0 mi North 18.4 mph 25.3 mph N/A   Partly Cloudy
4:53 PM 55.0 °F - 28.0 °F 35% 30.09 in 10.0 mi NNW 18.4 mph 28.8 mph N/A   Scattered Clouds
5:53 PM 53.1 °F - 30.9 °F 43% 30.08 in 10.0 mi North 19.6 mph 29.9 mph N/A   Mostly Cloudy
6:53 PM 50.0 °F - 28.9 °F 44% 30.07 in 10.0 mi North 18.4 mph 26.5 mph N/A   Clear
7:53 PM 48.0 °F - 30.9 °F 52% 30.06 in 10.0 mi NNW 19.6 mph 25.3 mph N/A   Clear
8:53 PM 46.9 °F - 30.0 °F 52% 30.05 in 10.0 mi NNW 12.7 mph 23.0 mph N/A   Clear
9:53 PM 46.0 °F 39.3 °F 30.0 °F 54% 30.04 in 10.0 mi NNW 16.1 mph 28.8 mph N/A   Clear
10:53 PM 45.0 °F 37.9 °F 28.9 °F 53% 30.02 in 10.0 mi NNW 16.1 mph 31.1 mph N/A   Clear
11:53 PM 44.1 °F 37.4 °F 28.9 °F 55% 29.99 in 10.0 mi NW 13.8 mph 21.9 mph N/A   Clear